Вернуться в каталог

TIROS N

АктивенПогодаSSO
NORAD 11060·PAYLOAD·🇺🇸 United States

Запущен Oct 13, 1978 с Vandenberg Space Force Base

Loading…

Ближайшие Пролёты (ближайшие 24 часа)

TLE

СвежийSource: Space-Track

Эпоха: Sep 14, 2026, 12:33 UTC

1 11060U 78096A   26257.52323824  .00000066  00000-0  51290-4 0  9992
2 11060  98.4523 274.5253 0010107 350.4578   9.6405 14.19396016691426

Отслеживайте TIROS N в реальном времени с AllMySat

Download on the App Store